TimePDT,TemperatureF,Dew PointF,Humidity,Sea Level PressureIn,VisibilityMPH,Wind Direction,Wind SpeedMPH,Gust SpeedMPH,PrecipitationIn,Events,Conditions,WindDirDegrees,DateUTC
12:15 AM,50.0,26.6,40,29.95,10.0,East,5.8,-,N/A,,Clear,100,2012-10-11 07:15:00
12:55 AM,48.2,26.6,43,29.96,10.0,ESE,10.4,-,N/A,,Clear,110,2012-10-11 07:55:00
1:15 AM,46.4,26.6,46,29.96,10.0,ESE,8.1,-,N/A,,Clear,120,2012-10-11 08:15:00
1:35 AM,46.4,26.6,46,29.96,10.0,ESE,10.4,-,N/A,,Clear,120,2012-10-11 08:35:00
1:55 AM,46.4,26.6,46,29.97,10.0,ESE,8.1,-,N/A,,Clear,110,2012-10-11 08:55:00
2:15 AM,44.6,26.6,49,29.97,10.0,East,11.5,-,N/A,,Clear,100,2012-10-11 09:15:00
2:35 AM,44.6,26.6,49,29.97,10.0,ESE,8.1,-,N/A,,Clear,120,2012-10-11 09:35:00
2:55 AM,42.8,26.6,53,29.97,10.0,ESE,10.4,-,N/A,,Clear,120,2012-10-11 09:55:00
3:15 AM,44.6,26.6,49,29.97,10.0,ESE,8.1,-,N/A,,Clear,110,2012-10-11 10:15:00
3:35 AM,44.6,26.6,49,29.98,10.0,SE,12.7,-,N/A,,Clear,130,2012-10-11 10:35:00
3:55 AM,44.6,28.4,53,29.97,10.0,SE,10.4,-,N/A,,Clear,130,2012-10-11 10:55:00
4:15 AM,44.6,28.4,53,29.97,10.0,ESE,4.6,-,N/A,,Clear,120,2012-10-11 11:15:00
4:35 AM,42.8,26.6,53,29.97,10.0,Calm,Calm,-,N/A,,Clear,0,2012-10-11 11:35:00
4:55 AM,42.8,26.6,53,29.97,10.0,SE,9.2,-,N/A,,Clear,140,2012-10-11 11:55:00
5:15 AM,42.8,26.6,53,29.97,10.0,SE,4.6,-,N/A,,Clear,130,2012-10-11 12:15:00
5:35 AM,41.0,26.6,57,29.97,10.0,ESE,5.8,-,N/A,,Clear,120,2012-10-11 12:35:00
5:55 AM,41.0,26.6,57,29.98,10.0,ESE,6.9,-,N/A,,Clear,110,2012-10-11 12:55:00
6:15 AM,39.2,26.6,61,29.98,10.0,SE,3.5,-,N/A,,Clear,130,2012-10-11 13:15:00
6:35 AM,39.2,26.6,61,29.98,10.0,SE,4.6,-,N/A,,Clear,140,2012-10-11 13:35:00
6:55 AM,41.0,28.4,61,29.98,10.0,SE,5.8,-,N/A,,Clear,130,2012-10-11 13:55:00
7:15 AM,41.0,26.6,57,29.99,10.0,SE,6.9,-,N/A,,Clear,140,2012-10-11 14:15:00
7:35 AM,41.0,28.4,61,29.99,10.0,ESE,8.1,-,N/A,,Clear,120,2012-10-11 14:35:00
7:55 AM,42.8,28.4,57,30.00,10.0,ESE,8.1,-,N/A,,Clear,120,2012-10-11 14:55:00
8:15 AM,44.6,28.4,53,30.00,10.0,ESE,8.1,-,N/A,,Clear,110,2012-10-11 15:15:00
8:35 AM,44.6,28.4,53,30.00,10.0,East,5.8,-,N/A,,Clear,100,2012-10-11 15:35:00
8:55 AM,46.4,28.4,50,30.00,10.0,SE,9.2,-,N/A,,Clear,130,2012-10-11 15:55:00
9:15 AM,46.4,28.4,50,30.00,10.0,East,4.6,-,N/A,,Clear,100,2012-10-11 16:15:00
9:35 AM,50.0,28.4,43,30.00,10.0,SE,6.9,-,N/A,,Clear,130,2012-10-11 16:35:00
9:55 AM,51.8,28.4,41,30.00,10.0,ESE,3.5,-,N/A,,Clear,110,2012-10-11 16:55:00
10:15 AM,55.4,30.2,38,29.99,10.0,East,3.5,-,N/A,,Clear,90,2012-10-11 17:15:00
10:55 AM,59.0,30.2,34,29.98,10.0,Calm,Calm,-,N/A,,Clear,0,2012-10-11 17:55:00
11:15 AM,60.8,30.2,31,29.97,10.0,Calm,Calm,-,N/A,,Clear,0,2012-10-11 18:15:00
11:35 AM,62.6,30.2,30,29.97,10.0,Calm,Calm,-,N/A,,Clear,0,2012-10-11 18:35:00
11:55 AM,64.4,30.2,28,29.96,10.0,NW,3.5,-,N/A,,Clear,310,2012-10-11 18:55:00
12:15 PM,64.4,30.2,28,29.95,10.0,WNW,3.5,-,N/A,,Clear,290,2012-10-11 19:15:00
12:35 PM,68.0,30.2,24,29.95,10.0,NW,4.6,-,N/A,,Clear,320,2012-10-11 19:35:00
12:55 PM,68.0,30.2,24,29.94,10.0,Calm,Calm,-,N/A,,Clear,0,2012-10-11 19:55:00
1:15 PM,69.8,28.4,21,29.92,10.0,Calm,Calm,-,N/A,,Clear,0,2012-10-11 20:15:00
1:55 PM,71.6,28.4,20,29.91,10.0,ENE,3.5,-,N/A,,Clear,60,2012-10-11 20:55:00
2:15 PM,71.6,28.4,20,29.90,10.0,WNW,4.6,-,N/A,,Clear,300,2012-10-11 21:15:00
2:35 PM,71.6,28.4,20,29.90,10.0,NNW,5.8,-,N/A,,Clear,330,2012-10-11 21:35:00
2:55 PM,73.4,28.4,19,29.90,10.0,Calm,Calm,-,N/A,,Clear,0,2012-10-11 21:55:00
3:15 PM,73.4,26.6,18,29.89,10.0,NW,3.5,-,N/A,,Clear,310,2012-10-11 22:15:00
3:35 PM,73.4,26.6,18,29.89,10.0,Calm,Calm,-,N/A,,Clear,0,2012-10-11 22:35:00
3:55 PM,73.4,26.6,18,29.88,10.0,West,5.8,-,N/A,,Clear,260,2012-10-11 22:55:00
4:15 PM,73.4,26.6,18,29.87,10.0,West,3.5,-,N/A,,Clear,260,2012-10-11 23:15:00
4:35 PM,73.4,26.6,18,29.87,10.0,Calm,Calm,-,N/A,,Clear,0,2012-10-11 23:35:00
4:55 PM,73.4,26.6,18,29.86,10.0,West,5.8,-,N/A,,Clear,260,2012-10-11 23:55:00
5:15 PM,73.4,26.6,18,29.86,10.0,West,5.8,-,N/A,,Clear,260,2012-10-12 00:15:00
5:35 PM,71.6,24.8,17,29.85,10.0,West,4.6,-,N/A,,Clear,260,2012-10-12 00:35:00
5:55 PM,69.8,24.8,18,29.85,10.0,WSW,3.5,-,N/A,,Clear,240,2012-10-12 00:55:00
6:15 PM,68.0,26.6,21,29.85,10.0,WSW,3.5,-,N/A,,Clear,250,2012-10-12 01:15:00
6:35 PM,66.2,26.6,23,29.85,10.0,WSW,3.5,-,N/A,,Clear,240,2012-10-12 01:35:00
6:55 PM,64.4,26.6,24,29.85,10.0,SW,3.5,-,N/A,,Clear,230,2012-10-12 01:55:00
7:15 PM,62.6,26.6,26,29.85,10.0,SW,3.5,-,N/A,,Clear,230,2012-10-12 02:15:00
7:35 PM,62.6,26.6,26,29.86,10.0,Calm,Calm,-,N/A,,Clear,0,2012-10-12 02:35:00
7:55 PM,62.6,26.6,26,29.86,10.0,Calm,Calm,-,N/A,,Clear,0,2012-10-12 02:55:00
8:55 PM,53.6,26.6,35,29.87,10.0,Calm,Calm,-,N/A,,Clear,0,2012-10-12 03:55:00
9:15 PM,53.6,26.6,35,29.87,10.0,East,8.1,-,N/A,,Clear,100,2012-10-12 04:15:00
9:35 PM,51.8,26.6,38,29.87,10.0,ESE,8.1,-,N/A,,Clear,120,2012-10-12 04:35:00
9:55 PM,55.4,26.6,33,29.88,10.0,ESE,13.8,-,N/A,,Clear,120,2012-10-12 04:55:00
10:15 PM,53.6,26.6,35,29.87,10.0,SE,10.4,-,N/A,,Clear,130,2012-10-12 05:15:00
10:35 PM,53.6,26.6,35,29.87,10.0,ESE,10.4,-,N/A,,Clear,120,2012-10-12 05:35:00
10:55 PM,53.6,26.6,35,29.88,10.0,ESE,9.2,-,N/A,,Clear,120,2012-10-12 05:55:00
11:15 PM,51.8,26.6,38,29.87,10.0,East,10.4,-,N/A,,Clear,100,2012-10-12 06:15:00
11:35 PM,51.8,26.6,38,29.87,10.0,ESE,8.1,-,N/A,,Clear,120,2012-10-12 06:35:00
11:55 PM,50.0,26.6,40,29.87,10.0,SE,10.4,-,N/A,,Clear,130,2012-10-12 06:55:00